This is the latest recevied weather packets stored in our database for station/object EW3591. If no packets are shown the sender has not sent any weather packets the latest 1 day(s).
| Time | Temp. | Humidity | Pressure | Rain* | Wind** | Luminosity | Snow |
|---|---|---|---|---|---|---|---|
| 1777975701 | 13.89° C | 86% | 999.8 hPa | 0 mm | 2.24 m/s, 196° | - | - |
| 1777975580 | 13.89° C | 86% | 999.8 hPa | 0 mm | 1.79 m/s, 196° | - | - |
| 1777975460 | 13.89° C | 86% | 999.7 hPa | 0 mm | 1.79 m/s, 230° | - | - |
| 1777975340 | 13.89° C | 86% | 999.5 hPa | 0 mm | 1.79 m/s, 225° | - | - |
| 1777975219 | 13.89° C | 86% | 999.5 hPa | 0 mm | 1.34 m/s, 229° | - | - |
| 1777975099 | 13.89° C | 86% | 999.4 hPa | 0 mm | 1.34 m/s, 230° | - | - |
| 1777974979 | 13.89° C | 86% | 999.4 hPa | 0 mm | 2.68 m/s, 224° | - | - |
| 1777974859 | 13.89° C | 87% | 999.2 hPa | 0 mm | 2.68 m/s, 208° | - | - |
| 1777974738 | 13.89° C | 87% | 999.2 hPa | 0 mm | 2.24 m/s, 211° | - | - |
| 1777974618 | 13.89° C | 87% | 999.3 hPa | 0 mm | 2.68 m/s, 219° | - | - |
| 1777974498 | 13.89° C | 87% | 999.2 hPa | 0 mm | 2.24 m/s, 206° | - | - |
| 1777974377 | 13.89° C | 87% | 999.3 hPa | 0 mm | 1.79 m/s, 198° | - | - |
| 1777974257 | 13.89° C | 87% | 999.2 hPa | 0 mm | 2.24 m/s, 204° | - | - |
| 1777974137 | 13.89° C | 87% | 999.2 hPa | 0 mm | 1.79 m/s, 218° | - | - |
| 1777974016 | 13.33° C | 87% | 999.3 hPa | 0 mm | 1.34 m/s, 214° | - | - |
| 1777973896 | 13.33° C | 87% | 999.3 hPa | 0 mm | 1.34 m/s, 225° | - | - |
| 1777973776 | 13.33° C | 87% | 999.3 hPa | 0 mm | 1.79 m/s, 216° | - | - |
| 1777973656 | 13.33° C | 87% | 999.4 hPa | 0 mm | 1.34 m/s, 212° | - | - |
| 1777973535 | 13.33° C | 87% | 999.3 hPa | 0 mm | 1.79 m/s, 224° | - | - |
| 1777973415 | 13.33° C | 87% | 999.3 hPa | 0 mm | 2.24 m/s, 200° | - | - |
| 1777973295 | 13.33° C | 87% | 999.3 hPa | 0 mm | 2.24 m/s, 213° | - | - |
| 1777973174 | 13.33° C | 87% | 999.3 hPa | 0 mm | 2.24 m/s, 212° | - | - |
| 1777973054 | 13.33° C | 87% | 999.2 hPa | 0 mm | 2.24 m/s, 212° | - | - |
| 1777972934 | 13.89° C | 87% | 999.2 hPa | 0 mm | 1.79 m/s, 220° | - | - |
| 1777972813 | 13.89° C | 87% | 999.2 hPa | 0 mm | 2.24 m/s, 218° | - | - |
* Rain latest hour (hover to see other rain measurements)
** Current wind speed in m/s (hover to see current wind gust speed)